User: anonymous   Login
Location: Home
(42.5358°N, 72.7383°W)
Time: 15:49:12
(UTC-05:00)
Language:

CUTE-I - Orbit

View from above orbital plane
View from above orbital plane
View from above satellite
View from above satellite

Ground track
Ground track

The orbit data is extracted from the following two-line orbital elements,

1 27844U 03031E   22019.43999372  .00000158  00000-0  90458-4 0  9996
2 27844  98.6802  29.3710 0010065 167.7965 192.3459 14.22371006962685
Epoch (UTC): 19 January 2022 10:33:35
Eccentricity: 0.0010065
inclination: 98.6802°
perigee height: 810 km
apogee height: 824 km
right ascension of ascending node: 29.3710°
argument of perigee: 167.7965°
revolutions per day: 14.22371006
mean anomaly at epoch: 192.3459°
orbit number at epoch: 96268

The dashed part of the orbit path shows where the satellite is in the earth's shadow,  

DLR